Vorticity
7 4 4 4 0 4 4 5 13 6 3 0 4 4 2 2 1 1 2 3 3 6 9 8 7 6 6 5 6 5 5 4 4 5 5 6 6 6 6 5 5 5 5
7 7 3 4 0 6 3 7 10 8 3 2 2 2 2 1 2 5 8 11 10 10 10 9 7 7 6 6 6 6 6 7 7 6 4 5 5 5 4 4 3 3 3
8 8 8 8 9 2 6 5 14 8 2 3 4 3 3 10 7 8 13 20 18 14 11 8 7 7 6 6 7 6 7 7 6 5 5 4 4 3 3 1 1 1 1
7 6 9 6 4 6 4 8 10 11 3 3 3 10 6 7 12 19 12 5 4 4 6 7 8 8 7 6 5 5 5 5 5 6 6 6 6 6 7 7 6 6 5
7 8 6 3 4 6 8 14 9 2 2 5 8 4 6 10 13 7 5 4 4 5 5 4 2 2 3 4 4 4 5 6 6 5 5 5 5 6 6 7 7 8 9
7 6 5 6 6 3 19 4 3 2 3 7 6 4 8 12 9 6 3 4 4 1 3 5 5 4 6 7 4 5 4 4 5 6 7 7 9 9 9 9 9 9 8
4 4 6 6 4 4 7 3 2 2 7 8 4 5 7 8 7 6 5 4 5 5 4 4 4 8 7 3 10 11 8 6 7 7 8 8 7 6 7 8 7 8 8
2 1 4 1 4 5 2 5 4 4 10 6 5 7 8 6 6 5 4 4 5 3 4 8 6 9 12 10 4 6 8 9 9 7 6 5 5 5 5 4 3 4 5
3 1 0 2 2 4 3 3 4 5 9 6 7 7 8 5 5 4 3 4 2 4 5 8 9 8 8 9 10 9 8 7 6 6 6 5 5 5 5 5 4 4 4
2 3 -0 3 2 4 5 4 4 7 9 6 8 8 7 5 2 7 5 2 4 2 13 3 8 12 11 11 9 6 4 5 4 4 4 4 4 4 5 5 4 3 1
5 4 3 3 4 4 4 5 5 12 6 8 9 7 6 4 3 4 5 1 2 7 2 13 13 13 11 7 6 7 7 7 5 5 7 6 5 4 3 2 1 0 -0
5 6 5 5 5 4 5 7 11 7 10 11 5 4 5 4 4 3 4 5 9 3 5 6 10 8 6 6 7 8 10 9 6 4 2 1 1 1 -0 0 1 1 1
4 5 6 5 5 6 8 11 8 10 9 6 4 5 4 6 2 2 7 6 4 4 9 7 5 4 10 13 7 3 3 3 3 3 3 4 4 4 4 3 3 2 2
6 5 5 6 7 9 10 8 9 7 6 5 5 5 5 4 5 11 4 4 7 11 7 7 16 12 1 -2 -3 7 5 4 3 2 1 4 7 7 8 12 16 18 22
6 6 8 8 10 8 7 8 8 7 5 5 8 6 3 12 7 3 6 10 14 10 8 14 2 4 7 -4 -1 -1 2 3 5 12 17 19 25 37 41 39 36 35 33
9 9 8 9 7 6 8 8 7 5 5 6 4 11 10 1 5 6 15 7 7 15 8 3 -3 -2 -1 6 4 1 5 20 30 37 35 39 43 45 40 38 37 34 30
7 8 7 6 7 8 8 6 5 6 5 13 10 1 2 5 11 13 5 11 7 3 2 6 -1 3 4 7 9 19 39 34 35 41 43 29 22 31 43 44 42 43 42
8 6 6 9 8 6 5 4 8 13 9 3 1 6 6 15 5 5 11 3 3 3 1 -1 -1 -3 7 25 42 40 33 42 29 19 14 17 23 27 25 30 30 30 34
6 8 8 6 5 5 6 12 7 5 3 6 5 7 12 3 10 6 4 2 3 1 3 3 1 12 36 50 34 39 37 15 15 24 26 29 26 21 18 17 17 18 23
10 6 5 5 5 7 8 4 6 5 6 5 13 7 8 8 3 4 3 3 4 6 3 8 28 48 39 39 38 17 11 20 12 9 16 14 10 9 10 10 9 11 14
5 5 5 5 6 6 6 6 6 5 7 12 5 9 4 4 2 4 2 -0 3 7 14 38 44 30 45 33 -1 28 6 22 15 15 16 14 8 7 6 6 8 11 13
4 5 5 7 5 6 7 7 4 9 9 8 4 3 2 4 4 2 -1 5 15 35 45 38 27 43 29 -2 35 5 15 18 14 2 8 11 4 5 10 15 19 29 26
5 6 5 5 8 8 5 6 12 5 9 3 3 3 4 3 0 5 2 29 45 36 22 27 41 24 3 28 12 8 16 16 14 8 6 20 12 15 14 12 7 11 12
6 4 7 9 6 3 10 9 9 5 4 2 4 2 2 4 6 7 38 45 30 25 28 33 16 8 26 13 11 15 13 14 16 14 9 16 10 17 16 13 16 26 3
7 9 7 2 7 13 7 10 4 5 2 6 2 3 4 2 15 40 39 29 31 30 32 6 10 21 9 8 11 11 12 12 11 11 11 10 16 18 17 17 15 30 25
8 3 5 9 8 12 6 5 3 5 2 3 3 3 5 22 41 33 22 32 32 28 -1 14 22 6 6 9 7 7 10 8 9 8 10 11 21 17 9 24 18 21 26
Height
5811 5812 5812 5812 5811 5810 5810 5808 5806 5803 5800 5800 5797 5798 5795 5792 5790 5787 5785 5783 5779 5777 5774 5772 5770 5768 5767 5764 5763 5763 5761 5760 5759 5759 5758 5758 5757 5756 5756 5756 5756 5755 5756
5805 5805 5806 5805 5805 5804 5803 5801 5799 5796 5794 5793 5791 5791 5788 5785 5782 5779 5776 5773 5770 5767 5765 5763 5761 5759 5757 5755 5753 5752 5750 5749 5748 5747 5747 5746 5745 5744 5744 5744 5744 5744 5744
5799 5799 5799 5799 5799 5797 5796 5793 5791 5790 5787 5785 5783 5783 5780 5777 5774 5770 5767 5763 5760 5758 5757 5755 5752 5751 5748 5746 5743 5741 5740 5738 5735 5734 5734 5733 5732 5731 5730 5730 5730 5730 5731
5793 5793 5793 5793 5792 5791 5789 5786 5785 5783 5780 5779 5776 5775 5772 5768 5765 5762 5759 5756 5753 5750 5748 5746 5744 5741 5738 5735 5733 5730 5728 5726 5723 5721 5720 5719 5717 5715 5714 5714 5714 5714 5715
5787 5787 5786 5786 5785 5783 5781 5779 5779 5776 5773 5771 5768 5766 5763 5759 5756 5754 5751 5747 5744 5741 5738 5736 5733 5730 5727 5723 5720 5717 5714 5712 5709 5706 5704 5703 5701 5699 5698 5697 5696 5697 5697
5780 5780 5779 5779 5777 5776 5773 5772 5771 5769 5766 5763 5760 5757 5754 5750 5747 5744 5741 5739 5735 5731 5727 5724 5720 5717 5714 5710 5706 5703 5700 5696 5693 5690 5688 5686 5683 5681 5680 5679 5678 5677 5677
5774 5773 5773 5771 5770 5768 5767 5765 5763 5761 5759 5756 5752 5748 5745 5741 5738 5734 5731 5727 5723 5718 5715 5711 5707 5703 5699 5696 5692 5687 5684 5680 5676 5672 5670 5667 5664 5662 5662 5661 5660 5659 5659
5767 5767 5766 5764 5762 5761 5759 5757 5754 5751 5749 5746 5743 5740 5736 5732 5728 5724 5720 5715 5711 5706 5701 5696 5691 5687 5683 5679 5675 5670 5666 5661 5657 5653 5649 5647 5644 5642 5640 5639 5638 5638 5638
5760 5760 5758 5756 5755 5753 5751 5749 5746 5742 5738 5736 5733 5729 5727 5725 5722 5718 5712 5704 5698 5692 5686 5680 5674 5668 5664 5660 5655 5651 5646 5641 5637 5632 5627 5624 5621 5619 5616 5614 5613 5613 5613
5752 5752 5750 5748 5746 5744 5742 5740 5736 5732 5728 5724 5720 5717 5714 5711 5708 5707 5705 5698 5692 5684 5677 5670 5662 5656 5650 5644 5638 5632 5626 5621 5615 5610 5605 5600 5596 5592 5590 5588 5586 5585 5585
5744 5743 5742 5739 5737 5734 5732 5729 5725 5721 5717 5713 5709 5705 5700 5695 5691 5687 5686 5684 5677 5669 5662 5654 5646 5639 5632 5626 5621 5615 5609 5602 5595 5588 5582 5575 5569 5565 5561 5558 5557 5554 5552
5737 5735 5733 5730 5727 5725 5722 5718 5713 5709 5705 5701 5697 5692 5687 5682 5677 5671 5667 5663 5659 5654 5647 5638 5628 5621 5614 5607 5601 5593 5586 5579 5572 5565 5557 5550 5544 5537 5531 5526 5522 5517 5514
5728 5726 5724 5721 5718 5714 5710 5706 5701 5697 5693 5688 5683 5678 5672 5666 5661 5655 5650 5645 5640 5634 5625 5616 5606 5597 5591 5584 5576 5568 5561 5551 5542 5532 5523 5514 5506 5499 5492 5486 5482 5476 5472
5719 5717 5714 5711 5708 5704 5699 5694 5690 5686 5681 5676 5670 5664 5657 5651 5644 5637 5630 5624 5622 5616 5606 5595 5584 5574 5565 5556 5547 5537 5526 5515 5505 5495 5482 5471 5459 5450 5442 5435 5428 5422 5420
5710 5707 5704 5701 5697 5693 5688 5683 5679 5674 5669 5663 5657 5650 5643 5635 5627 5619 5610 5601 5594 5593 5593 5574 5562 5550 5538 5527 5517 5503 5490 5477 5464 5449 5433 5422 5411 5400 5390 5382 5378 5374 5372
5701 5698 5694 5691 5686 5681 5677 5672 5667 5662 5655 5649 5643 5635 5627 5619 5610 5600 5591 5581 5572 5565 5566 5553 5545 5526 5512 5498 5482 5466 5452 5434 5418 5403 5388 5378 5368 5361 5355 5345 5337 5333 5331
5691 5688 5683 5679 5675 5671 5666 5661 5654 5648 5642 5635 5627 5620 5610 5601 5591 5582 5572 5561 5551 5540 5536 5542 5519 5506 5487 5468 5452 5431 5409 5393 5379 5367 5359 5352 5345 5335 5322 5315 5309 5304 5300
5682 5677 5673 5669 5665 5660 5654 5648 5641 5635 5628 5620 5612 5603 5593 5583 5573 5563 5552 5541 5529 5516 5505 5502 5492 5474 5454 5436 5415 5401 5387 5369 5355 5346 5339 5333 5325 5317 5307 5298 5293 5287 5283
5672 5668 5664 5659 5654 5648 5642 5636 5629 5622 5614 5605 5596 5586 5577 5567 5557 5544 5532 5520 5506 5493 5475 5462 5461 5440 5421 5402 5391 5377 5368 5357 5346 5335 5327 5318 5311 5305 5298 5290 5284 5280 5275
5663 5659 5654 5648 5642 5636 5630 5623 5616 5608 5599 5589 5579 5570 5560 5549 5537 5525 5511 5497 5483 5468 5450 5431 5415 5407 5392 5381 5369 5363 5357 5344 5336 5327 5320 5310 5302 5296 5288 5283 5278 5273 5269
5653 5649 5643 5637 5630 5624 5617 5610 5603 5594 5584 5575 5564 5554 5542 5530 5516 5502 5486 5471 5453 5438 5422 5405 5391 5378 5370 5363 5357 5350 5343 5336 5326 5317 5313 5303 5296 5288 5279 5274 5267 5265 5262
5643 5637 5631 5625 5619 5612 5604 5597 5588 5580 5570 5560 5549 5537 5524 5510 5497 5481 5464 5444 5424 5405 5391 5381 5372 5362 5356 5351 5345 5340 5333 5326 5322 5308 5306 5301 5285 5282 5272 5265 5260 5256 5252
5632 5627 5621 5614 5607 5600 5592 5583 5574 5565 5555 5544 5533 5520 5506 5491 5475 5460 5442 5421 5400 5383 5370 5363 5358 5350 5347 5340 5336 5332 5325 5319 5311 5302 5299 5295 5280 5275 5265 5258 5254 5250 5245
5622 5616 5610 5602 5595 5587 5579 5570 5560 5550 5539 5528 5515 5499 5485 5469 5450 5433 5418 5400 5385 5370 5360 5352 5346 5342 5336 5332 5328 5323 5317 5313 5306 5295 5290 5283 5274 5267 5258 5253 5245 5240 5234
5611 5605 5598 5590 5582 5574 5565 5555 5546 5536 5525 5511 5495 5477 5462 5446 5427 5410 5394 5382 5371 5360 5352 5346 5339 5333 5328 5323 5318 5315 5310 5305 5300 5290 5284 5274 5267 5259 5253 5246 5239 5233 5228
5600 5593 5585 5578 5570 5561 5552 5542 5532 5521 5508 5493 5476 5457 5439 5420 5402 5387 5377 5368 5359 5351 5345 5338 5331 5326 5320 5315 5310 5304 5301 5296 5291 5286 5278 5271 5262 5257 5250 5245 5238 5231 5225